Zurück zum Katalog

LUNA-2

AktivWissenschaftSSO
NORAD 68470·PAYLOAD·🇺🇸 United States

Gestartet Mar 30, 2026 von Vandenberg Space Force Base

Loading…

Nächste Überflüge (nächste 24 Stunden)

TLE

AktuellSource: Space-Track

Epoche: Sep 14, 2026, 07:46 UTC

1 68470U 26067BG  26257.32411497  .00006124  00000-0  30095-3 0  9992
2 68470  97.4573 214.2231 0008653 112.8782 247.3366 15.18373464 25457

Verfolge LUNA-2 in Echtzeit mit AllMySat

Download on the App Store